{"data":{"norad_id":48333,"intl_designator":"2021-036BK","name":"STARLINK-2518","alt_names":[],"object_type":"PAYLOAD","status":"ACTIVE","operator":null,"country":"US","launch_date":"2021-04-29","launch_site_code":"AFETR","launch_vehicle":null,"mission":null,"orbit_class":"UNKNOWN","rcs_meters":null,"size_class":null,"mass_kg":null,"dimensions":null,"purposes":["comms"],"wikipedia_slug":null,"has_3d_model":false,"image_url":null,"decayed_at":null,"tle_current":{"epoch":"2026-05-25T04:23:12.920352Z","epoch_age_seconds":59011,"freshness":"FRESH","line1":"1 48333U 21036BK  26145.18278843  .00001452  00000+0  58542-4 0  9991","line2":"2 48333  53.1592 105.2618 0001171  85.9913 274.1222 15.31697138279761","mean_motion":15.31697138,"eccentricity":0.0001171,"inclination_deg":53.1592,"raan_deg":105.2618,"arg_perigee_deg":85.9913,"mean_anomaly_deg":274.1222,"bstar":5.8542e-5,"rev_number":27976,"period_min":94.013363626197,"perigee_km":469.94652221683,"apogee_km":471.55053120718,"semimajor_km":6848.885526712,"source":"CELESTRAK","updated_at":"2026-05-25T13:38:16.683745Z"}}}